| time (UTC) | temp F | wind direction | speed knots | gust knots | rain 1hr in | rain 24hr in | rain mn in | humidity % | barometer mb |
| 20260505202041 | 46 | 60 | 4.3 | 0.0 | 0.00 | 0.00 | 0.00 | 99 | |
| 20260505192034 | 46 | 100 | 10.4 | 0.0 | 0.00 | 0.00 | 0.00 | 99 | |
| 20260505182027 | 48 | 40 | 7.8 | 0.0 | 0.00 | 0.00 | 0.00 | 93 | |
| 20260505172026 | 48 | 20 | 13.9 | 0.0 | 0.00 | 0.00 | 0.00 | 99 | |
| 20260505162114 | 50 | 10 | 12.2 | 0.0 | 0.00 | 0.00 | 0.00 | 81 | |
| 20260505152026 | 52 | 20 | 13.9 | 0.0 | 0.00 | 0.00 | 0.00 | 81 | |
| 20260505121958 | 52 | 30 | 10.4 | 0.0 | 0.00 | 0.00 | 0.00 | 71 | |
| 20260505111958 | 50 | 10 | 7.8 | 0.0 | 0.00 | 0.00 | 0.00 | 76 | |
| 20260505101958 | 52 | 10 | 4.3 | 0.0 | 0.00 | 0.00 | 0.00 | 71 | |
| 20260505091957 | 54 | 210 | 4.3 | 0.0 | 0.00 | 0.00 | 0.00 | 66 | |
| 20260505081959 | 50 | 160 | 7.8 | 0.0 | 0.00 | 0.00 | 0.00 | 57 | |
| 20260505071959 | 50 | 150 | 12.2 | 0.0 | 0.00 | 0.00 | 0.00 | 57 | |
| 20260505061959 | 52 | 150 | 10.4 | 0.0 | 0.00 | 0.00 | 0.00 | 50 | |
| 20260505051958 | 50 | 220 | 10.4 | 0.0 | 0.00 | 0.00 | 0.00 | 57 | |
| 20260505031957 | 50 | 200 | 20.9 | 0.0 | 0.00 | 0.00 | 0.00 | 57 | |
| 20260505021957 | 46 | 250 | 10.4 | 19.1 | 0.00 | 0.00 | 0.00 | 70 | |
| 20260505012000 | 46 | 230 | 20.9 | 0.0 | 0.00 | 0.00 | 0.00 | 70 | |
| 20260505001957 | 48 | 200 | 17.4 | 0.0 | 0.00 | 0.00 | 0.00 | 70 | |
| 20260504232034 | 50 | 170 | 12.2 | 0.0 | 0.00 | 0.00 | 0.00 | 66 | |
| 20260504221959 | 50 | 230 | 6.1 | 0.0 | 0.00 | 0.00 | 0.00 | 57 | |
| 20260504211958 | 50 | 190 | 6.1 | 0.0 | 0.00 | 0.00 | 0.00 | 57 |